TimeCDT,TemperatureF,Dew PointF,Humidity,Sea Level PressureIn,VisibilityMPH,Wind Direction,Wind SpeedMPH,Gust SpeedMPH,PrecipitationIn,Events,Conditions,WindDirDegrees,DateUTC
12:19 AM,35.6,33.8,93,29.51,10.0,South,9.2,-,N/A,,Scattered Clouds,170,2013-04-15 05:19:00
12:53 AM,36.0,32.0,86,29.56,10.0,South,10.4,-,N/A,,Clear,170,2013-04-15 05:53:00
1:53 AM,35.1,28.9,78,29.55,10.0,South,10.4,-,N/A,,Clear,190,2013-04-15 06:53:00
2:53 AM,36.0,28.0,73,29.55,10.0,South,13.8,20.7,N/A,,Scattered Clouds,190,2013-04-15 07:53:00
3:04 AM,35.6,28.4,75,29.52,10.0,SSW,13.8,-,N/A,,Mostly Cloudy,200,2013-04-15 08:04:00
3:17 AM,35.6,28.4,75,29.53,10.0,SSW,15.0,25.3,N/A,,Mostly Cloudy,210,2013-04-15 08:17:00
3:25 AM,35.6,28.4,75,29.53,10.0,SSW,15.0,24.2,N/A,,Mostly Cloudy,210,2013-04-15 08:25:00
3:41 AM,35.6,26.6,70,29.53,10.0,SSW,15.0,27.6,N/A,,Mostly Cloudy,210,2013-04-15 08:41:00
3:53 AM,36.0,27.0,70,29.55,10.0,SSW,11.5,23.0,N/A,,Mostly Cloudy,200,2013-04-15 08:53:00
4:51 AM,33.8,24.8,70,29.54,10.0,SW,21.9,29.9,N/A,,Mostly Cloudy,220,2013-04-15 09:51:00
4:53 AM,33.1,24.1,70,29.57,10.0,SW,20.7,28.8,N/A,,Mostly Cloudy,230,2013-04-15 09:53:00
5:53 AM,33.1,24.1,70,29.57,10.0,SW,15.0,24.2,N/A,,Overcast,220,2013-04-15 10:53:00
6:53 AM,33.1,24.1,70,29.58,10.0,SSW,18.4,26.5,N/A,,Overcast,210,2013-04-15 11:53:00
7:53 AM,33.1,25.0,72,29.61,10.0,SSW,16.1,26.5,N/A,,Overcast,210,2013-04-15 12:53:00
8:53 AM,33.1,26.1,75,29.62,10.0,SW,17.3,24.2,N/A,,Overcast,220,2013-04-15 13:53:00
9:20 AM,33.8,26.6,75,29.59,10.0,SSW,17.3,23.0,N/A,,Overcast,210,2013-04-15 14:20:00
9:33 AM,33.8,26.6,75,29.59,10.0,SW,15.0,20.7,N/A,,Overcast,220,2013-04-15 14:33:00
9:53 AM,35.1,27.0,72,29.63,10.0,SW,15.0,24.2,N/A,,Overcast,220,2013-04-15 14:53:00
10:53 AM,36.0,27.0,70,29.68,10.0,SW,16.1,29.9,N/A,,Overcast,230,2013-04-15 15:53:00
11:53 AM,36.0,28.0,73,29.71,10.0,SW,23.0,32.2,N/A,,Overcast,230,2013-04-15 16:53:00
12:33 PM,37.4,28.4,70,29.69,10.0,WSW,20.7,32.2,N/A,,Overcast,240,2013-04-15 17:33:00
12:53 PM,37.9,28.0,68,29.73,10.0,SW,21.9,31.1,N/A,,Overcast,230,2013-04-15 17:53:00
1:33 PM,37.4,28.4,70,29.73,10.0,WSW,24.2,34.5,N/A,,Overcast,240,2013-04-15 18:33:00
1:50 PM,37.4,28.4,70,29.73,10.0,WSW,18.4,31.1,N/A,,Overcast,240,2013-04-15 18:50:00
1:53 PM,37.9,28.0,68,29.76,10.0,SW,21.9,31.1,N/A,,Overcast,230,2013-04-15 18:53:00
2:53 PM,37.9,28.0,68,29.79,10.0,WSW,16.1,31.1,N/A,,Overcast,250,2013-04-15 19:53:00
3:53 PM,39.0,28.0,65,29.81,10.0,WSW,18.4,32.2,N/A,,Overcast,250,2013-04-15 20:53:00
4:53 PM,37.9,28.0,68,29.83,10.0,West,13.8,24.2,N/A,,Overcast,260,2013-04-15 21:53:00
5:06 PM,37.4,28.4,70,29.81,10.0,WSW,10.4,17.3,N/A,,Overcast,250,2013-04-15 22:06:00
5:13 PM,37.4,28.4,70,29.82,10.0,West,12.7,19.6,N/A,,Overcast,260,2013-04-15 22:13:00
5:53 PM,39.0,27.0,62,29.86,10.0,West,9.2,25.3,N/A,,Overcast,260,2013-04-15 22:53:00
6:18 PM,37.4,26.6,65,29.85,10.0,West,9.2,26.5,N/A,,Mostly Cloudy,260,2013-04-15 23:18:00
6:31 PM,37.4,26.6,65,29.85,10.0,West,13.8,27.6,N/A,,Overcast,260,2013-04-15 23:31:00
6:53 PM,37.9,27.0,65,29.89,10.0,WSW,10.4,23.0,N/A,,Overcast,250,2013-04-15 23:53:00
7:53 PM,37.0,28.0,70,29.90,10.0,WSW,10.4,-,N/A,,Clear,250,2013-04-16 00:53:00
8:53 PM,36.0,28.0,73,29.92,10.0,WSW,6.9,-,N/A,,Clear,250,2013-04-16 01:53:00
9:53 PM,36.0,28.0,73,29.96,10.0,WSW,11.5,-,N/A,,Mostly Cloudy,250,2013-04-16 02:53:00
10:53 PM,34.0,28.0,79,29.99,10.0,WSW,9.2,-,N/A,,Partly Cloudy,240,2013-04-16 03:53:00
11:53 PM,34.0,28.0,79,30.00,10.0,West,8.1,-,N/A,,Clear,260,2013-04-16 04:53:00